Regional Weather Roundup
Issued by NWS Midland/Odessa, TX

Home | Current Version | Previous Version | Text Only | Print | Product List | Glossary On
Versions: 1 2 3 4 5 6 7 8 9 10 11 12 13 14 15 16 17 18 19 20 21 22 23 24 25 26 27 28 29 30 31 32 33 34 35 36 37 38 39 40 41 42 43 44 45 46 47 48 49 50
000
ASUS44 KMAF 050810
RWRMAF
MIDLAND AREA WEATHER ROUNDUP
NATIONAL WEATHER SERVICE MIDLAND TX
300 AM CDT SAT SEP 05 2015

...IN SOUTHWEST TEXAS AND SOUTHEAST NEW MEXICO...

CITY           SKY/WX    TMP DP  RH WIND       PRES   REMARKS
ALPINE         CLEAR     68  56  64 W3        30.11S
ANDREWS        FAIR      70  54  56 S7        30.00S
ARTESIA        CLEAR     75  52  43 CALM      30.01S
BIG SPRING     CLEAR     77  58  51 SE9       30.00R
CARLSBAD       CLEAR     75  51  43 S7        29.97S
DRYDEN           N/A     81  68  64 SE10      29.92S
FORT STOCKTON  CLEAR     78  60  53 SE10      29.97S
GUAD PASS      CLEAR     71  52  50 NE22      30.11F
HOBBS            N/A     73  54  49 S10       30.03R
MARFA          CLEAR     63  52  67 CALM      30.09F
MIDLAND AIRPK  CLEAR     77  56  47 S6        29.99S
MIDLAND INTL   CLEAR     76  57  51 S7        29.98R
ODESSA         CLEAR     80  58  46 S9        29.99S
PECOS          CLEAR     73  54  49 E6        29.93S
PRESIDIO       FAIR      83  59  43 MISG      29.92S
SEMINOLE       CLEAR     69  53  58 SE3       30.01S
SNYDER         CLEAR     79  62  56 SE9       29.98S
WINK           CLEAR     76  55  48 SE8       29.95S
$$
...OTHER STATIONS IN TEXAS...

CITY           SKY/WX    TMP DP  RH WIND       PRES   REMARKS
ABILENE        CLEAR     78  67  68 S12       29.96S
AMARILLO       PTCLDY    73  58  59 S14       30.02F
AUSTIN         MOCLDY    74  72  93 CALM      29.96R
BROWNSVILLE    CLEAR     80  77  90 S7        29.92F
CORPUS CHRISTI PTCLDY    80  77  90 SE6       29.93R
DALLAS FTW     CLEAR     82  71  69 S9        29.94S
DEL RIO        CLEAR     83  71  67 SE12      29.89F
EL PASO        MOCLDY    77  55  46 N9        30.01F
HOUSTON INT    PTCLDY    76  74  93 CALM      29.96R
LUBBOCK        PTCLDY    69  56  62 SE7       30.01F
SAN ANGELO     CLEAR     80  65  59 S8        29.95S
SAN ANTONIO    MOCLDY    81  74  79 S10       29.97S
WACO           CLEAR     81  73  76 S15       29.95S
WICHITA FALLS  NOT AVBL
$$
...OTHER LOCATIONS IN NEW MEXICO...

CITY           SKY/WX    TMP DP  RH WIND       PRES   REMARKS
ALAMAGORDO     CLOUDY    73  55  53 N8        30.03F
ALBUQUERQUE    CLOUDY    64  58  80 E3        30.15F
CANNON AFB     CLEAR     68  53  58 SW6       30.07R
CLOVIS         CLEAR     66  52  59 SW7       30.07F
HOLLOMAN AFB   CLOUDY    74  57  54 N5        30.02F
ROSWELL        CLEAR     73  55  53 N6        30.02S
RUIDOSO        MOCLDY    59  54  82 W3        30.25F
SANTA FE       LGT RAIN  59  55  87 CALM      30.21R
TRUTH OR CONSE PTCLDY    65  58  78 VRB6      30.08F
TUCUMCARI      CLEAR     65  55  70 W6        30.03R
$$




USA.gov is the U.S. government's official web portal to all federal, state and local government web resources and services.